Skip Page Navigation
NASA JPL Caltech
NASA Logo - Jet Propulsion Laboratory + View the NASA Portal
+ Center for Near-Earth Object Studies
JPL Home Earth Solar System Stars & Galaxies Technology
JPL Solar System Dynamics
BODIES ORBITS EPHEMERIDES TOOLS PHYSICAL DATA DISCOVERY FAQ SITE MAP
JPL Small-Body Database Browser
Search: [ help ]  
5695 Remillieux (4577 P-L)
Classification: Main-belt Asteroid          SPK-ID: 2005695
Ephemeris | Orbit Diagram | Orbital Elements | Mission Design | Physical Parameters | Discovery Circumstances ]

[ show orbit diagram ]
Orbital Elements at Epoch 2459396.5 (2021-Jul-01.0) TDB
Reference: JPL 43 (heliocentric ecliptic J2000)
 Element Value Uncertainty (1-sigma)   Units 
e .1377548033207444 2.108e-08  
a 2.646688876772423 9.0759e-09 au
q 2.282094771101436 5.8216e-08 au
i 12.70841960484415 7.9213e-07 deg
node 174.0401070486534 5.6341e-06 deg
peri 273.3698536414017 8.3843e-06 deg
M 329.4017483200591 1.0755e-05 deg
tp 2459530.173979377134
(2021-Nov-11.67397938)
4.7234e-05 TDB
period 1572.724908571029
4.31
8.0896e-06
2.215e-08
d
yr
n .228902078194396 1.1774e-09 deg/d
Q 3.01128298244341 1.0326e-08 au
  Orbit Determination Parameters
   # obs. used (total)      2641  
   data-arc span      25783 days (70.59 yr)  
   first obs. used      1950-06-18  
   last obs. used      2021-01-19  
   planetary ephem.      DE441  
   SB-pert. ephem.      SB441-N16  
   condition code      0  
   norm. resid. RMS      .43118  
   source      ORB  
   producer      Otto Matic  
   solution date      2021-Jul-08 14:51:07  

Additional Information
 Earth MOID = 1.34004 au 
 Jupiter MOID = 2.26956 au 
 T_jup = 3.344 
[ show covariance matrix ]

Ephemeris | Orbit Diagram | Orbital Elements | Mission Design | Physical Parameters | Discovery Circumstances ]

Physical Parameter Table
Parameter Symbol Value Units Sigma Reference Notes
absolute magnitude H 12.97   n/a E2021B10  
diameter diameter 7.087 km 0.098 urn:nasa:pds:neowise_diameters_albedos::2.0[mainbelt] (http://adsabs.harvard.edu/abs/2011ApJ...741...68M)  
geometric albedo albedo 0.320   0.025 urn:nasa:pds:neowise_diameters_albedos::2.0[mainbelt] (http://adsabs.harvard.edu/abs/2011ApJ...741...68M)  

5695 Remillieux (4577 P-L)          Discovered 1960-Sep-24 by van Houten and Gehrels at Palomar
Reference: DISCOVERY.DBLast Updated: 2003-08-29

Alternate Designations
 4577 P-L = 1990 QK1 
Ephemeris | Orbit Diagram | Orbital Elements | Mission Design | Physical Parameters | Discovery Circumstances ]
ABOUT SSD CREDITS/AWARDS PRIVACY/COPYRIGHT GLOSSARY LINKS
FirstGov 2021-Aug-04 07:37 UT
(server date/time)  
NASA Home Page
Site Manager:   Ryan S. Park
Webmaster  Alan B. Chamberlin